Starlink 3635

operational
NORAD ID: 51981 Int'l Des: 2022-025 Owner: SPXS Country: US Constellation: starlink
LEOCIRCULAR

About Starlink 3635

Description loading...

Live Position

Loading 3D Globe...

Upcoming Passes

Altitude History

Altitude vs Time

uPlot chart will show altitude changes over time

Two-Line Element Set

1 51981U 22025AB 25306.16944169 -.00002154 00000-0 -11732-3 0 9992
2 51981 53.2174 251.5838 0001836 61.2469 298.8707 15.08830492201808
Epoch: Nov 2, 2025 • Age: 36 hours

Current Status

Altitude 541.5 km
Velocity 7.60 km/s
Sub-Earth Point 32.07°N, 119.21°E
Launch Date Mar 9, 2022
Age 3.6 years
Type internet

Technical Details

Classification Payload
Mass 297.00 kg
Dry Mass 275.00 kg
Total Mass 297.00 kg
Length 0.20 m
Diameter 2.80 m
Span 9.00 m
Shape Box + pan
Manufacturer SPXS
Bus Type Starlink
Phase Status In Orbit
Owner/State SPXS/US

Large Constellations

Loading constellations...